Regional Weather Roundup
Issued by NWS Cleveland, OH

Home | Current Version | Previous Version | Graphics & Text | Print | Product List | Glossary On
Versions: 1 2 3 4 5 6 7 8 9 10 11 12 13 14 15 16 17 18 19 20 21 22 23 24 25 26 27 28 29 30 31 32 33 34 35 36 37 38 39 40 41 42 43 44 45 46 47 48 49 50
000
ASUS41 KCLE 021502
RWRCLE
OHIO REGIONAL WEATHER ROUNDUP
NATIONAL WEATHER SERVICE CLEVELAND, OH
1100 AM EDT SUN AUG 02 2015

NOTE: "FAIR" INDICATES FEW OR NO CLOUDS BELOW 12,000 FEET WITH NO
SIGNIFICANT WEATHER AND/OR OBSTRUCTIONS TO VISIBILITY.

OHZ001>008-015>018-024>027-034-035-043-044-021600-
   NORTHWEST OHIO

CITY           SKY/WX    TMP DP  RH WIND       PRES   REMARKS
DEFIANCE       SUNNY     80  67  64 SW12      29.91F
FINDLAY        SUNNY     81  67  62 W12       29.92F
TOLEDO EXPRESS SUNNY     78  67  68 SW8       29.89F
TOLEDO EXEC    SUNNY     80  65  59 SW12      29.90F
LIMA           SUNNY     79  65  62 W8        29.95F
$$

OHZ009>014-019>023-028>033-038-089-021600-
   NORTHEAST OHIO

CITY           SKY/WX    TMP DP  RH WIND       PRES   REMARKS
CLE-HOPKINS    MOSUNNY   79  63  57 W12       29.94F
CLE-LAKEFRONT  SUNNY     78  63  59 W6        29.90F
CUY CO. ARPT   PTSUNNY   77  63  61 MISG      29.93F
LORAIN-ELYRIA  SUNNY     77  64  64 SW9       29.92F
ASHTABULA      SUNNY     78  60  53 W6        29.92F
AKRON-CANTON   SUNNY     79  63  57 W7        29.95F
WOOSTER        SUNNY     77  64  64 W9        29.96F
MANSFIELD      SUNNY     77  64  64 W7        29.96F
YOUNGSTOWN     MOSUNNY   77  62  59 NW6       29.95S
$$

OHZ042-051>053-060>062-070>072-077>081-021600-
  SOUTHWEST OHIO

CITY           SKY/WX    TMP DP  RH WIND       PRES   REMARKS
CINC-COVINGTON SUNNY     80  60  50 W6        30.00F
CINC-LUNKEN    SUNNY     79  65  62 S6        29.99F
HAMILTON       SUNNY     80  60  50 W7        29.99F
DAYTON         MOSUNNY   79  62  56 W13       30.00S
WRIGHT-PAT AFB NOT AVBL
DAYTON GENERAL SUNNY     79  58  48 SW9       29.99S
WILMINGTON     SUNNY     80  59  48 W9        30.00S
$$

OHZ036-037-039>041-045>050-054>059-063>069-073>076-082>088-021600-
  CENTRAL AND SOUTHEAST OHIO

CITY           SKY/WX    TMP DP  RH WIND       PRES   REMARKS
COLUMBUS       MOSUNNY   81  60  48 W12       29.97S
OSU AIRPORT    SUNNY     79  63  57 W13       29.98S
BOLTON FIELD   SUNNY     79  64  61 W9        29.99S
RICKENBACK AFB SUNNY     79  63  57 W10       29.98S
NEWARK         SUNNY     81  61  50 W12       29.97F
MARION         SUNNY     79  63  57 W8        29.96F
LANCASTER      SUNNY     79  63  57 W7        29.99S
ZANESVILLE     PTSUNNY   79  60  52 W8        29.98S
NEW PHILLY     SUNNY     78  66  66 VRB5      29.96F
$$



USA.gov is the U.S. government's official web portal to all federal, state and local government web resources and services.